[[{"header":{"parameterUnit":"m.s-1","parameterCategory":1,"la1":30.2991,"la2":30.254,"lo1":-89.0895,"lo2":-89.0444,"dy":0.0017,"dx":0.0017,"nx":28,"ny":28,"refTime":"2025-11-20T03:00:00:Z","depth":0,"parameterNumber":2,"parameterNumberName":"U-component_of_WINDS"},"data":[0,0,0,0,0,0,0,0,0,0,0,0,0,0,0,0,0,0,0,0,0,0,0,0,0,0,0,0,0,0,0,0,0,0,0,0,0,0,0,0,0,0,0,0,0,0,0,0,0,0,0,0,0,0,0,0,0,0,0.1733,0.1733,0,0.1818,0.1819,0.182,0.1866,0.1866,0.1866,0.1866,0.1953,0.1955,0.1958,0,0,0,0,0,0,0,0,0,0,0,0,0,0.1608,0.161,0.1732,0.1734,0.1735,0.1818,0.1819,0.182,0.1866,0.1866,0.1866,0.1866,0.1953,0.1955,0.1958,0,0,0,0,0,0,0,0,0,0,0,0,0,0.1675,0.1611,0.1732,0.1767,0.1771,0.1818,0.1819,0.1821,0.1866,0.1866,0.1866,0.1866,0.1952,0.1955,0.1958,0.1976,0,0,0.1968,0.197,0,0,0,0,0,0,0,0,0.1671,0.1679,0.1761,0.1765,0.177,0.1831,0.1807,0.1873,0.1866,0.183,0.1866,0.1866,0.1913,0.1919,0.1935,0.198,0.1984,0.1969,0.1971,0.1972,0.1973,0,0,0,0,0,0,0,0.1666,0.1676,0.1766,0.1762,0.1767,0.1779,0.1788,0.182,0.1869,0.1833,0.1837,0.1846,0.1915,0.1932,0.1937,0.1985,0.1969,0.1972,0.1974,0.1975,0.2049,0.2048,0,0,0,0,0,0,0.1656,0.1671,0.1764,0.1769,0.172,0.1781,0.1792,0.1811,0.1869,0.1878,0.1846,0.1848,0.1926,0.1933,0.194,0.1965,0.1972,0.1975,0.1977,0.2049,0.2049,0.2048,0,0,0,0,0,0,0.1653,0.1664,0.176,0.1721,0.1734,0.1783,0.1805,0.1813,0.183,0.1879,0.1888,0.1854,0.1926,0.1936,0.1967,0.1968,0.1977,0.198,0.2049,0.2049,0.2048,0.2013,0,0,0,0,0,0,0.1649,0.1662,0.167,0.1721,0.1736,0.1785,0.1805,0.1815,0.1835,0.1839,0.1889,0.1897,0.1927,0.1961,0.197,0.1973,0.1983,0.2049,0.2049,0.2049,0.2014,0.2012,0.201,0,0,0,0,0,0.1645,0.1657,0.167,0.1681,0.1747,0.1785,0.1794,0.1828,0.1835,0.1843,0.1875,0.1895,0.1967,0.1964,0.1974,0.1978,0.2049,0.2049,0.2049,0.2015,0.2012,0.201,0,0,0,0,0,0,0.1604,0.1664,0.1679,0.1708,0.1741,0.1793,0.1804,0.1824,0.1855,0.1857,0.1898,0.1909,0.1936,0.1961,0.1957,0.1998,0.201,0.2012,0.1981,0.1979,0.1977,0.197,0.1985,0,0,0,0,0,0.1599,0.1625,0.1676,0.1696,0.1712,0.1755,0.1773,0.1796,0.1832,0.1846,0.188,0.1914,0.1944,0.1963,0.1993,0.2018,0.2029,0.2026,0.2024,0.2021,0.2022,0.2037,0.2036,0.2048,0.2048,0.2048,0,0,0.1588,0.1623,0.1638,0.1689,0.1717,0.1744,0.1766,0.1793,0.1813,0.185,0.1882,0.1907,0.1948,0.1976,0.199,0.1997,0.2022,0.2021,0.2019,0.2022,0.2037,0.2035,0.2034,0.2048,0.2048,0.2048,0,0,0.158,0.161,0.1631,0.1658,0.1701,0.1729,0.1734,0.1782,0.1801,0.1833,0.1861,0.1885,0.1936,0.1964,0.1984,0.1987,0.2007,0.1995,0.1983,0.1997,0.1996,0.1995,0.1995,0.1995,0.1996,0.1996,0.1996,0,0.1561,0.1602,0.1638,0.1663,0.1685,0.172,0.1741,0.1766,0.1816,0.183,0.1837,0.1901,0.1931,0.1965,0.1966,0.1982,0.1988,0.199,0.1993,0.1993,0.1993,0.1993,0.1993,0.1994,0.1995,0.1995,0.1995,0,0.1576,0.1603,0.1615,0.1662,0.1685,0.1707,0.1747,0.1766,0.1787,0.1814,0.1846,0.1883,0.1921,0.1931,0.1952,0.1968,0.1971,0.1985,0.1998,0.1989,0.199,0.1991,0.1992,0.1993,0.1993,0.1994,0,0,0.1546,0.1613,0.1616,0.1638,0.1687,0.1709,0.1733,0.177,0.1785,0.1818,0.1839,0.1881,0.1894,0.1917,0.1942,0.1954,0.1953,0.1967,0.1968,0.1962,0.1972,0.1961,0.1961,0.1967,0.1967,0.1967,0.1968,0,0.1545,0.159,0.1623,0.1655,0.1681,0.1714,0.1735,0.1767,0.1793,0.1819,0.1848,0.1876,0.1892,0.1906,0.1919,0.195,0.1955,0.1951,0.1986,0.1987,0.1974,0.1962,0.195,0.195,0.1969,0.1969,0.197,0,0.1551,0.1583,0.1617,0.1663,0.1675,0.1693,0.173,0.1754,0.1791,0.1809,0.1834,0.1859,0.1886,0.1896,0.1932,0.1928,0.1945,0.1962,0.1963,0.1967,0.1977,0.1965,0.195,0.195,0.1971,0.1971,0.1971,0,0.1525,0.1577,0.1604,0.1621,0.1676,0.1687,0.1711,0.1748,0.1768,0.18,0.1813,0.1847,0.1866,0.1892,0.1925,0.193,0.1958,0.1971,0.1974,0.1973,0.1978,0.1977,0.1965,0.1989,0.1989,0.1989,0.1989,0,0.1521,0.154,0.1593,0.1609,0.1632,0.167,0.1691,0.1717,0.175,0.1772,0.1803,0.1823,0.1866,0.1891,0.1918,0.1943,0.1952,0.1967,0.1973,0.1964,0.1962,0.1975,0.1975,0.1989,0.1989,0.1989,0.1989,0,0.1496,0.1532,0.1563,0.1612,0.1625,0.1639,0.1681,0.1698,0.1725,0.1753,0.1761,0.1804,0.1835,0.1871,0.1914,0.1932,0.1955,0.1966,0.1943,0.1947,0.1947,0.1946,0.1943,0.1944,0.1967,0.1967,0.1966,0,0.149,0.1506,0.1557,0.1573,0.1596,0.1623,0.1643,0.1681,0.1701,0.1744,0.1755,0.1789,0.1817,0.1865,0.19,0.1933,0.1944,0.1941,0.1949,0.1939,0.1943,0.1942,0.1943,0.1938,0.1938,0.1937,0.1937,0,0.1477,0.1494,0.1522,0.1557,0.158,0.1609,0.164,0.1652,0.1695,0.1716,0.1748,0.177,0.1814,0.1846,0.1883,0.1907,0.1929,0.1934,0.1936,0.1926,0.1912,0.1919,0.1936,0.1934,0.1934,0.1934,0.1934,0.1935,0.1462,0.1477,0.1515,0.1545,0.1572,0.1599,0.1617,0.1647,0.1674,0.1713,0.1733,0.1764,0.1801,0.1853,0.1875,0.19,0.1908,0.1911,0.1912,0.1912,0.1909,0.1908,0.1907,0.1907,0.1907,0.1908,0.1908,0,0.1449,0.1475,0.1503,0.1544,0.1568,0.1586,0.1621,0.1639,0.1666,0.1698,0.1726,0.1762,0.1793,0.1831,0.1864,0.1877,0.1888,0.1885,0.1884,0.1889,0.19,0.1895,0.1875,0.1875,0.1875,0.1875,0.1875,0.1875,0.1446,0.1473,0.1494,0.1534,0.1559,0.159,0.1608,0.1633,0.1659,0.1698,0.1724,0.1748,0.1782,0.1819,0.1848,0.1858,0.1869,0.1862,0.1875,0.1885,0.1888,0.1891,0.1886,0.1865,0.1864,0.1862,0.1862,0.1862]},{"header":{"parameterUnit":"m.s-1","parameterCategory":1,"la1":30.2991,"la2":30.254,"lo1":-89.0895,"lo2":-89.0444,"dy":0.0017,"dx":0.0017,"nx":28,"ny":28,"refTime":"2025-11-20T03:00:00:Z","depth":0,"parameterNumber":3,"parameterNumberName":"V-component_of_WINDS"},"data":[0,0,0,0,0,0,0,0,0,0,0,0,0,0,0,0,0,0,0,0,0,0,0,0,0,0,0,0,0,0,0,0,0,0,0,0,0,0,0,0,0,0,0,0,0,0,0,0,0,0,0,0,0,0,0,0,0,0,0.3467,0.3466,0,0.3386,0.3385,0.3384,0.3342,0.3342,0.3342,0.3342,0.3256,0.3254,0.3251,0,0,0,0,0,0,0,0,0,0,0,0,0,0.3583,0.3581,0.3467,0.3466,0.3465,0.3386,0.3385,0.3384,0.3342,0.3342,0.3342,0.3342,0.3257,0.3254,0.3251,0,0,0,0,0,0,0,0,0,0,0,0,0,0.352,0.3581,0.3467,0.3435,0.3431,0.3386,0.3385,0.3383,0.3342,0.3342,0.3342,0.3342,0.3257,0.3254,0.3251,0.323,0,0,0.324,0.3239,0,0,0,0,0,0,0,0,0.3524,0.3516,0.3441,0.3437,0.3433,0.3374,0.3394,0.3332,0.3342,0.3376,0.3342,0.3342,0.3295,0.3289,0.3273,0.3226,0.3222,0.324,0.3238,0.3236,0.3235,0,0,0,0,0,0,0,0.3528,0.3519,0.3435,0.344,0.3435,0.3423,0.3415,0.3382,0.3337,0.3373,0.337,0.3361,0.3293,0.3277,0.3271,0.3221,0.324,0.3237,0.3235,0.3234,0.3152,0.3152,0,0,0,0,0,0,0.3538,0.3523,0.3437,0.3432,0.3479,0.3421,0.3411,0.3393,0.3337,0.3328,0.3361,0.336,0.3282,0.3275,0.3268,0.3239,0.3236,0.3233,0.3231,0.3152,0.3152,0.3152,0,0,0,0,0,0,0.3541,0.3531,0.3441,0.3477,0.3465,0.342,0.3399,0.3391,0.3375,0.3328,0.3319,0.3353,0.3282,0.3272,0.324,0.3236,0.3232,0.3229,0.3152,0.3152,0.3152,0.3183,0,0,0,0,0,0,0.3545,0.3532,0.3525,0.3477,0.3463,0.3415,0.3399,0.339,0.337,0.3367,0.3318,0.331,0.3281,0.3245,0.3236,0.3231,0.3226,0.3152,0.3152,0.3152,0.3182,0.3184,0.3186,0,0,0,0,0,0.3549,0.3537,0.3525,0.3515,0.3453,0.3415,0.3407,0.3375,0.337,0.3361,0.3331,0.3311,0.3238,0.3242,0.3232,0.3226,0.3153,0.3152,0.3152,0.3182,0.3184,0.3186,0,0,0,0,0,0,0.3584,0.353,0.3516,0.3488,0.3457,0.3408,0.3397,0.3379,0.3347,0.3346,0.3307,0.3296,0.3267,0.3243,0.3249,0.3202,0.3193,0.3191,0.3219,0.3221,0.3223,0.3229,0.3223,0,0,0,0,0,0.3589,0.3564,0.3517,0.3497,0.3482,0.3442,0.3425,0.3403,0.3369,0.3355,0.3322,0.3288,0.3257,0.3238,0.3207,0.3179,0.3167,0.3169,0.3171,0.3173,0.3171,0.3154,0.3154,0.3151,0.3151,0.3151,0,0,0.3598,0.3565,0.3552,0.3503,0.3476,0.345,0.3431,0.3405,0.3385,0.335,0.3318,0.3292,0.3252,0.3222,0.3207,0.3201,0.3169,0.3172,0.3174,0.3171,0.3153,0.3154,0.3154,0.3151,0.3151,0.3151,0,0,0.3601,0.3574,0.3554,0.3528,0.3488,0.3461,0.3457,0.3411,0.3393,0.336,0.3333,0.3308,0.3256,0.3228,0.3207,0.32,0.3181,0.3191,0.3199,0.3183,0.3183,0.3183,0.318,0.3179,0.3189,0.3189,0.3189,0,0.3617,0.3578,0.3546,0.3521,0.35,0.3469,0.3447,0.3423,0.3374,0.336,0.3354,0.3288,0.3259,0.3221,0.3219,0.3203,0.3196,0.3196,0.3186,0.3186,0.3185,0.3182,0.3181,0.3191,0.3191,0.3191,0.319,0,0.36,0.3573,0.3561,0.3517,0.3494,0.3471,0.3434,0.3415,0.3395,0.3369,0.3335,0.3299,0.326,0.3249,0.3229,0.3208,0.3206,0.3194,0.3184,0.3187,0.3183,0.3182,0.3193,0.3192,0.3192,0.3192,0,0,0.3623,0.3561,0.3557,0.3536,0.3489,0.3467,0.3442,0.3405,0.3389,0.3356,0.3334,0.329,0.3279,0.3255,0.3231,0.3217,0.3213,0.3206,0.3205,0.3208,0.3187,0.3196,0.3195,0.32,0.3199,0.3199,0.319,0,0.3619,0.3575,0.3545,0.3511,0.3485,0.3455,0.3433,0.3401,0.3376,0.335,0.3321,0.3291,0.3278,0.3263,0.3248,0.3217,0.3208,0.3217,0.3177,0.3176,0.3188,0.3193,0.3203,0.3196,0.3188,0.3188,0.3188,0,0.361,0.3579,0.3543,0.3499,0.3487,0.3468,0.3431,0.3407,0.337,0.3352,0.3326,0.3302,0.3273,0.3266,0.3225,0.3231,0.3213,0.3195,0.3194,0.3189,0.3182,0.3188,0.3193,0.3192,0.3185,0.3185,0.3185,0,0.363,0.358,0.3552,0.3535,0.3482,0.347,0.3447,0.341,0.3389,0.3357,0.3343,0.3307,0.3287,0.3259,0.3225,0.3223,0.3187,0.3178,0.3171,0.3172,0.3165,0.3166,0.3167,0.3154,0.3154,0.3154,0.3154,0,0.3629,0.3608,0.356,0.3543,0.3518,0.3483,0.3459,0.3434,0.3401,0.3378,0.3348,0.3327,0.3284,0.3256,0.323,0.32,0.3191,0.3175,0.3168,0.3177,0.3179,0.3165,0.3164,0.3154,0.3154,0.3154,0.3154,0,0.3648,0.3615,0.3582,0.3535,0.3523,0.3507,0.3466,0.3448,0.3421,0.3391,0.3382,0.334,0.3306,0.327,0.3223,0.3205,0.3176,0.3166,0.3189,0.3185,0.3181,0.3182,0.3173,0.317,0.3159,0.3159,0.3159,0,0.3649,0.3633,0.3585,0.3567,0.3546,0.3518,0.3497,0.3461,0.3441,0.3397,0.3383,0.3347,0.3317,0.3264,0.3228,0.3192,0.3181,0.3181,0.3176,0.3185,0.3181,0.3182,0.318,0.3182,0.3183,0.3183,0.3183,0,0.3656,0.364,0.3612,0.3577,0.3553,0.3524,0.3494,0.3481,0.3439,0.3417,0.3382,0.3359,0.3312,0.3276,0.3236,0.3211,0.319,0.3185,0.3182,0.3191,0.3204,0.3197,0.3193,0.3185,0.3185,0.3185,0.3185,0.3185,0.3666,0.3649,0.3613,0.3582,0.3555,0.3528,0.3508,0.3479,0.345,0.341,0.339,0.3355,0.3317,0.3261,0.3237,0.3209,0.3202,0.3197,0.3196,0.3195,0.3198,0.3209,0.3201,0.3201,0.3201,0.3201,0.3201,0,0.367,0.3645,0.3617,0.3576,0.3551,0.3535,0.35,0.348,0.345,0.3418,0.3388,0.3348,0.3313,0.3275,0.3237,0.3222,0.3211,0.3213,0.3214,0.3208,0.3206,0.3212,0.3223,0.3223,0.3223,0.3223,0.3223,0.3223,0.367,0.3641,0.3621,0.3579,0.3553,0.352,0.3502,0.3476,0.3449,0.3406,0.3378,0.3353,0.3317,0.3277,0.3244,0.3233,0.322,0.3225,0.3212,0.321,0.3209,0.3207,0.3213,0.3223,0.3223,0.3217,0.3217,0.3217]}]]